COSMOS 700 DEB

Satellite information

Favourite Embed

Satellite Type and Status

DEBRISIN ORBIT

Key statistics

Satellite COSMOS 700 DEB at a glance.

Uptime

18518

Days in orbit

Revolutions

≈ 14.0

Per day

Orbit

LEO

Low Earth Orbit

Inclination

82.9

Latest

Satellite identification and parameters

Extended collection of information and parameters for COSMOS 700 DEB.

Object identification

Identified? True

Debris? True

Object name: COSMOS 700 DEB

International designator: 1974-105C

Object number (NORAD): 23308

Object ID (CCSDS): 23308

Country: COMMONWEALTH OF INDEPENDENT STATES (CIS)

Current information (Y/N): Y

RCS size: SMALL

Orbital parameters

Period: 103.206 minutes

Inclination: 82.9423 deg

SMA: 7288.362 km

Apoapsis: 924.009 km

Periapsis: 896.446 km

RAAN: 124.3331 deg

Eccentricy: 0.00189088

Argument of periapsis: 257.3705 deg

Mean anomaly: 156.8287 deg

Mean motion: 13.95268644 rev/day

Mean motion (dot): 0.00001474 rev/day2

B* drag term: 0.0010776619 1/REarth

Two-line elements (TLE)

Creation date: Sept. 7, 2025, 3:09 a.m.

Reference frame: TEME

Reference center: EARTH

Epoch: Sept. 6, 2025, 3:52 p.m. UTC

TLE line 0: 0 COSMOS 700 DEB

TLE line 1: 1 23308U 74105C 25249.66138442 .00001474 00000-0 10777-2 0 9999

TLE line 2: 2 23308 82.9423 124.3331 0018909 257.3705 156.8287 13.95268644637280

Live tracking on map

Real-time ground track for satellite COSMOS 700 DEB.

In-orbit conjunctions

A list of the most updated potential collisions computed for object COSMOS 700 DEB.

Target Orbit TCA Probability of collision Miss distance Type
CZ-4 R/B SSO 2025-08-20 04:01:27 0.0002656672 564.0 (m) ROCKET BODY
DMSP 5D-2 F14 DEB SSO 2025-02-24 01:06:32 0.0001177928 896.0 (m) DEBRIS

Associated space launch

Navigation satellite providing location information for the Tsiklon-B navigation system

COSMOS 700 DEB was lifted into orbit during the mission ‘Kosmos-3M | Parus 1’, on board a Kosmos-3M space rocket.

The launch took place on Dec. 26, 1974, 11:59 a.m. from 132/1 (132L).

For more information about the launch, click the button.

Launch to space Kosmos-3M | Parus 1
Kosmos-3M | Parus 1

Agency: N/A

Status: Launch Successful

Launch date: Dec. 26, 1974, 11:59 a.m. UTC

Rocket: Kosmos-3M

Launch pad: 132/1 (132L)

Location: Plesetsk Cosmodrome, Russian Federation

...

Latest news about this satellite

There are no fresh news available about this satellite. Check back as we update our databases every day.


Newsletter sign-up

Weekly statistics, charts and insights to help you stay on top of the space industry.